Regional Weather Roundup
Issued by NWS

Home | Current Version | Previous Version | Text Only | Print | Product List | Glossary On
Versions: 1 2 3 4 5 6 7 8 9 10 11 12 13 14 15 16 17 18 19 20 21 22 23 24 25 26 27 28 29 30 31 32 33 34 35 36 37 38 39 40 41 42 43 44 45 46 47 48 49 50
000
ASUS43 KMPX 210810
RWRMN
WEATHER ROUNDUP FOR MINNESOTA
NATIONAL WEATHER SERVICE TWIN CITIES/CHANHASSEN MN
300 AM CDT THU AUG 21 2014


NOTE: "FAIR" INDICATES FEW OR NO CLOUDS BELOW 12,000 FEET WITH NO
SIGNIFICANT WEATHER AND/OR OBSTRUCTIONS TO VISIBILITY. N/A MEANS
CURRENT SKY AND/OR WEATHER CONDITIONS ARE NOT AVAILABLE.

MNZ060>063-068>070-210900-
   Twin Cities Metro

CITY           SKY/WX    TMP DP  RH WIND       PRES   REMARKS
TWIN CITIES    CLOUDY    71  66  84 SE12      29.81F
ST PAUL        MOCLDY    70  64  81 SE13      29.81F
CRYSTAL        CLOUDY    72  64  76 SE8       29.79F
BLAINE         CLOUDY    72  64  78 E8        29.81F
LAKEVILLE      CLOUDY    66  66 100 E5        29.82F
EDEN PRAIRIE   CLOUDY    72  67  84 E12       29.79F
SOUTH ST PAUL  MOCLDY    70  64  80 SE3       29.81F
LAKE ELMO      FAIR      68  63  83 E7        29.84F
$$
MNZ001>005-007-008-013>017-022>024-027-028-210900-
   Northwest Minnesota

CITY           SKY/WX    TMP DP  RH WIND       PRES   REMARKS
BEMIDJI        MOCLDY    63  62  95 E8        29.82F
HALLOCK        MOCLDY    66  64  94 E6        29.73F
ROSEAU         PTCLDY    64  61  88 SE7       29.79F
WARROAD        CLEAR     64  61  88 SE6       29.81F
THIEF RVR FALL MOCLDY    64  63  94 E10       29.77F
CROOKSTON      MOCLDY    68  64  88 SE12      29.74F
FOSSTON        MOCLDY    64  61  88 SE7       29.79F
DETROIT LAKES  CLOUDY    68  63  83 SE14G21   29.78F
MOORHEAD       TSTM      72  70  94 SE7       29.75S
PARK RAPIDS    CLOUDY    66  62  87 SE10      29.81F
MAHNOMEN       FAIR      66  63  88 SE10G16   29.77F
$$
MNZ006-009>011-018-025>026-210900-
   North Central Minnesota

CITY           SKY/WX    TMP DP  RH WIND       PRES   REMARKS
BAUDETTE       CLEAR     62  60  93 SE7       29.83F
FLAG ISLAND    CLEAR     68  63  83 SE7       29.81F
INTL FALLS     CLEAR     56  56 100 E5        29.87F
WASKISH        PTCLDY    63  61  94 CALM      29.84R
BIG FORK       CLEAR     59  57  94 SE3       29.88S
LONGVILLE      PTCLDY    61  61 100 E5        29.84F
GRAND RAPIDS   CLOUDY    59  55  88 SE9       29.87F
CRANE LAKE     FOG       52  52 100 CALM      29.91F VSB 1/2
ORR            PTCLDY    57  54  88 CALM      29.87F
COOK           CLOUDY    57  57 100 SE7       29.90F
WALKER         FAIR      64  61  90 SE6       29.83F
$$
MNZ012-019>021-037-210900-
   Northeast Minnesota

CITY           SKY/WX    TMP DP  RH WIND       PRES   REMARKS
DULUTH         CLOUDY    61  59  93 E10       29.91F
ELY            CLOUDY    57  55  94 SE6       29.93F
HIBBING        CLOUDY    60  59  96 SE9       29.90F FOG
EVELETH        CLOUDY    59  59 100 SE5       29.92F
DULUTH HARBOR  CLOUDY    63  61  94 NE15      29.91F
TWO HARBORS    CLOUDY    59  55  88 NE3       29.91F
SILVER BAY     CLOUDY    57  57 100 NE6       29.92F FOG
GRAND MARAIS     N/A     60  59  96 VRB3      29.95S
G MARAIS ARPRT FOG       57  54  88 CALM      29.98S VSB 1/4
$$
MNZ029>031-032-039>041-046>048-054>057-064-210900-
   West Central Minnesota

CITY           SKY/WX    TMP DP  RH WIND       PRES   REMARKS
FERGUS FALLS   TSTM      70  66  88 SE3       29.76R
WHEATON        CLOUDY    66  66 100 SE14      29.71F
MORRIS         TSTM      70  70 100 SE21      29.71F
ALEXANDRIA     LGT RAIN  68  66  93 N7        29.79R
ELBOW LAKE     TSTM      68  67  96 E8        29.75S
WADENA         TSTM      64  63  94 E9        29.77F
GLENWOOD       TSTM      68  66  94 E12       29.76F
APPLETON       TSTM      72  68  88 N18       29.73R
BENSON         TSTM      72  70  94 CALM      29.76R
ORTONVILLE     LGT RAIN  70  66  88 E13G20    29.70F
MADISON        CLOUDY    73  72  94 SE14      29.69S
WILLMAR        CLOUDY    72  68  88 SE7G21    29.76R
$$
MNZ033>034-036-042>043-049>051-058-059-210900-
   Central Minnesota

CITY           SKY/WX    TMP DP  RH WIND       PRES   REMARKS
ST CLOUD       LGT RAIN  70  63  78 E8        29.79F
SAUK CENTRE    TSTM      67  65  94 E10G17    29.77F
PAYNESVILLE    CLOUDY    67  65  94 NE10G17   29.77S
AITKIN         MOCLDY    64  59  82 E7        29.84F
PINE RIVER     MOCLDY    64  63  94 E9        29.86F
BRAINERD       MOCLDY    66  62  87 SE7       29.83F
STAPLES        CLOUDY    64  61  88 E6        29.80F
LONG PRAIRIE   TSTM      64  63  94 E7        29.79F
LITTLE FALLS   LGT RAIN  66  61  82 E8        29.80F
LITCHFIELD     RAIN      72  72 100 SE12      29.78F
BUFFALO        CLOUDY    70  64  81 E9        29.80F
MAPLE LAKE     CLOUDY    71  67  87 SE5       29.80F
$$
MNZ037-044-045-052-053-210900-
   East Central Minnesota

CITY           SKY/WX    TMP DP  RH WIND       PRES   REMARKS
PRINCETON      CLOUDY    68  64  88 E8        29.81F
MORA           MOCLDY    64  61  88 E6        29.86F
CAMBRIDGE      MOCLDY    70  59  68 E8        29.81F
RUSH CITY      CLOUDY    65  62  88 E5        29.85F
MOOSE LAKE     PTCLDY    59  59 100 E3        29.87F
HINCKLEY       CLOUDY    63  63 100 E7        29.86F
CLOQUET        CLOUDY    61  59  94 E8        29.91S FOG
MCGREGOR       MOCLDY    61  59  94 SE8       29.87F
$$
MNZ071>073-080-081-089-090-097-098-210900-
   Southwest Minnesota

CITY           SKY/WX    TMP DP  RH WIND       PRES   REMARKS
MONTEVIDEO     TSTM      70  70 100 SE17      29.71F
GRANITE FALLS  CLOUDY    70  69  96 E14G22    29.71F
CANBY          CLOUDY    70  68  95 E5        29.71R
MARSHALL       CLOUDY    70  63  78 SE21      29.69F
REDWOOD FALLS  RAIN      71  69  93 S10       29.74F
OLIVIA         CLOUDY    72  66  83 SE8       29.75R
PIPESTONE      PTCLDY    72  70  94 SE8       29.72F
WINDOM         TSTM      66  64  94 E23G29    29.78R
WORTHINGTON    MOCLDY    73  14  10 S9G18     29.73F
JACKSON        CLOUDY    72  68  88 SE16      29.74F
TRACY          CLOUDY    69  66  91 SE20G26   29.72F
SLAYTON        CLOUDY    68  67  98 E12G18    29.75F
$$
MNZ065>067-074>077-082>085-091>093-210900-
   South Central Minnesota

CITY           SKY/WX    TMP DP  RH WIND       PRES   REMARKS
MANKATO        CLOUDY    72  64  78 SE15      29.79F
NEW ULM        TSTM      72  70  94 SE13      29.76F
ST JAMES       CLOUDY    72  68  88 E9        29.77F THUNDER
FAIRMONT       CLOUDY    72  64  78 MISG      29.78F
GLENCOE        CLOUDY    72  67  83 SE10      29.78F
FARIBAULT      CLOUDY    75  63  64 SE10G17   29.81F
OWATONNA       CLOUDY    72  64  78 SE10      29.82F
WASECA         LGT RAIN  72  63  73 SE14G21   29.82F
ALBERT LEA     CLOUDY    70  66  88 SE13      29.82F
$$
MNZ078>079-086>088-094>096-210900-
   Southeast Minnesota

CITY           SKY/WX    TMP DP  RH WIND       PRES   REMARKS
ROCHESTER      CLOUDY    69  65  86 SE9       29.88F
RED WING       PTCLDY    72  64  78 E7        29.83F
STANTON        MOCLDY    72  67  85 SE5       29.81F
DODGE CENTER   CLOUDY    70  66  88 SE9       29.86F
WINONA         CLOUDY    70  64  83 SE6       29.87F
AUSTIN         CLOUDY    70  66  88 SE7       29.86F
PRESTON        MOCLDY    69  67  96 S7        29.89F
$$
ABBREVIATIONS USED IN REMARKS
   TC - TEMPERATURES IN CELSIUS
  WCI - WIND CHILL INDEX
   HX - HEAT INDEX
  VSB - VISIBILITY
$$



USA.gov is the U.S. government's official web portal to all federal, state and local government web resources and services.